INTELSAT 21 (IS-21)

Last updated on Tue Jul 01 2025 00:02:45 GMT+0000 (Coordinated Universal Time)

1 38749U 12045A 25181.46123036 -.00000285 00000+0 00000+0 0 9999 2 38749 0.0450 268.6065 0000978 257.7869 220.4177 1.00267211 46994
UTC large
Height (km)
Speed (km/s)
/
Latitude / Longitude
Inclination (degrees)
Orbital Period (minutes)
Azimuth
Elevation
Range (km)
Doppler Factor

Next 0 passes for location: London (51.5072 / 0.1276)

Sorry there are no passes over London.